Weather History for Bainbridge, GA

Change the Weather History Date:

Thursday, September 4, 2014

  Actual Average (KMAI) Record (KMAI)
Temperature  
Mean Temperature 85 °F 80 °F  
Max Temperature 95 °F 90 °F 96 °F (2010)
Min Temperature 75 °F 71 °F 69 °F (1998)
Degree Days  
Heating Degree Days 0    
Month to date heating degree days  
Since 1 July heating degree days  
Cooling Degree Days 20    
Month to date cooling degree days  
Year to date cooling degree days  
Growing Degree Days 35 (Base 50)    
Moisture  
Dew Point 74 °F    
Average Humidity 79    
Maximum Humidity 94    
Minimum Humidity 47    
Precipitation  
Precipitation 0.00 in 0.13 in 1.34 in (2012)
Month to date precipitation 0.53  
Year to date precipitation 38.86  
Sea Level Pressure  
Sea Level Pressure 30.08 in    
Wind  
Wind Speed 3 mph (ENE)    
Max Wind Speed 12 mph    
Max Gust Speed 18 mph    
Visibility 10 miles    
Events Thunderstorm    
T = Trace of Precipitation, MM = Missing Value Source: NWS Daily Summary

Daily Weather History Graph

Daily Weather History Graph

Search for Another Location

Airport:

Trip Planner

Search our weather history database for the weather conditions in past years. The results will help you decide how hot, cold, wet, or windy it might be!

Date:

Astronomy

Sep. 04, 2014 Rise Set
Actual Time 7:16 AM EDT 7:58 PM EDT
Civil Twilight 6:51 AM EDT 8:22 PM EDT
Nautical Twilight 6:23 AM EDT 8:51 PM EDT
Astronomical Twilight 5:53 AM EDT 9:20 PM EDT
Moon 4:23 PM EDT (9/4) 2:18 AM EDT (9/4)
Length of Visible Light 13h 30m
Length of Day
12h 41m
Waxing Gibbous, 74% of the Moon is Illuminated
Sep 4
Waxing Gibbous
Sep 8
Full
Sep 15
Last Quarter
Sep 24
New
Oct 1
First Quarter

Hourly Weather History & Observations

Time (EDT) Temp. Heat Index Dew Point Humidity Pressure Visibility Wind Dir Wind Speed Gust Speed Precip Events Conditions
12:15 AM 78.8 °F - 77.0 °F 94% 30.07 in 10.0 mi Calm Calm - N/A   Clear
12:35 AM 78.8 °F - 77.0 °F 94% 30.07 in 10.0 mi Calm Calm - N/A   Clear
12:55 AM 77.0 °F - 73.4 °F 89% 30.07 in 10.0 mi Calm Calm - N/A   Clear
1:15 AM 78.8 °F - 77.0 °F 94% 30.08 in 10.0 mi Calm Calm - N/A   Clear
1:35 AM 77.0 °F - 73.4 °F 89% 30.08 in 10.0 mi ENE 4.6 mph - N/A   Clear
1:55 AM 77.0 °F - 73.4 °F 89% 30.07 in 10.0 mi East 5.8 mph - N/A   Clear
2:15 AM 77.0 °F - 73.4 °F 89% 30.07 in 10.0 mi East 3.5 mph - N/A   Clear
2:35 AM 77.0 °F - 73.4 °F 89% 30.06 in 10.0 mi ENE 3.5 mph - N/A   Clear
2:55 AM 77.0 °F - 73.4 °F 89% 30.05 in 10.0 mi East 3.5 mph - N/A   Clear
3:15 AM 77.0 °F - 73.4 °F 89% 30.05 in 10.0 mi East 3.5 mph - N/A   Clear
3:35 AM 77.0 °F - 73.4 °F 89% 30.05 in 10.0 mi East 3.5 mph - N/A   Clear
3:55 AM 77.0 °F - 73.4 °F 89% 30.05 in 10.0 mi ESE 3.5 mph - N/A   Clear
4:15 AM 75.2 °F - 73.4 °F 94% 30.05 in 10.0 mi Calm Calm - N/A   Clear
4:35 AM 75.2 °F - 73.4 °F 94% 30.05 in 10.0 mi East 3.5 mph - N/A   Clear
4:55 AM 75.2 °F - 73.4 °F 94% 30.05 in 10.0 mi Calm Calm - N/A   Clear
5:15 AM 75.2 °F - 73.4 °F 94% 30.06 in 10.0 mi Calm Calm - N/A   Clear
5:35 AM 75.2 °F - 73.4 °F 94% 30.06 in 10.0 mi East 3.5 mph - N/A   Clear
5:55 AM 75.2 °F - 73.4 °F 94% 30.05 in 10.0 mi ENE 3.5 mph - N/A   Clear
6:15 AM 75.2 °F - 73.4 °F 94% 30.06 in 10.0 mi Calm Calm - N/A   Clear
6:35 AM 75.2 °F - 73.4 °F 94% 30.07 in 10.0 mi Calm Calm - N/A   Scattered Clouds
6:55 AM 75.2 °F - 73.4 °F 94% 30.07 in 10.0 mi NE 3.5 mph - N/A   Scattered Clouds
7:15 AM 75.2 °F - 73.4 °F 94% 30.08 in 10.0 mi ENE 3.5 mph - N/A   Scattered Clouds
7:35 AM 75.2 °F - 73.4 °F 94% 30.08 in 7.0 mi East 4.6 mph - N/A   Clear
7:55 AM 75.2 °F - 73.4 °F 94% 30.09 in 5.0 mi Calm Calm - N/A   Scattered Clouds
8:15 AM 77.0 °F - 73.4 °F 89% 30.10 in 7.0 mi Calm Calm - N/A   Scattered Clouds
8:35 AM 78.8 °F - 77.0 °F 94% 30.10 in 10.0 mi Calm Calm - N/A   Clear
8:55 AM 78.8 °F - 75.2 °F 89% 30.10 in 10.0 mi NE 3.5 mph - N/A   Clear
9:15 AM 80.6 °F 86.2 °F 75.2 °F 84% 30.10 in 10.0 mi ENE 6.9 mph - N/A   Clear
9:35 AM 80.6 °F 86.2 °F 75.2 °F 84% 30.10 in 10.0 mi East 3.5 mph - N/A   Clear
9:55 AM 80.6 °F 86.2 °F 75.2 °F 84% 30.11 in 10.0 mi East 4.6 mph - N/A   Scattered Clouds
10:15 AM 84.2 °F 94.1 °F 77.0 °F 79% 30.11 in 10.0 mi East 3.5 mph - N/A   Clear
10:35 AM 86.0 °F 95.1 °F 75.2 °F 70% 30.12 in 10.0 mi Calm Calm - N/A   Clear
10:55 AM 86.0 °F 95.1 °F 75.2 °F 70% 30.12 in 10.0 mi Calm Calm - N/A   Clear
11:15 AM 87.8 °F 99.7 °F 77.0 °F 70% 30.12 in 10.0 mi East 3.5 mph - N/A   Clear
11:35 AM 87.8 °F 95.6 °F 73.4 °F 62% 30.12 in 10.0 mi Calm Calm - N/A   Clear
12:15 PM 93.2 °F 105.0 °F 75.2 °F 56% 30.11 in 10.0 mi NE 4.6 mph - N/A   Clear
12:35 PM 93.2 °F 105.0 °F 75.2 °F 56% 30.10 in 10.0 mi East 3.5 mph - N/A   Clear
12:55 PM 93.2 °F 102.4 °F 73.4 °F 52% 30.10 in 10.0 mi Calm Calm - N/A   Clear
1:15 PM 95.0 °F 104.5 °F 73.4 °F 49% 30.09 in 10.0 mi ENE 4.6 mph - N/A   Clear
1:35 PM 95.0 °F 104.5 °F 73.4 °F 49% 30.08 in 10.0 mi East 5.8 mph - N/A   Clear
1:55 PM 95.0 °F 104.5 °F 73.4 °F 49% 30.08 in 10.0 mi ESE 5.8 mph - N/A   Clear
2:15 PM 95.0 °F 104.5 °F 73.4 °F 49% 30.07 in 10.0 mi ENE 5.8 mph - N/A   Scattered Clouds
2:35 PM 95.0 °F 103.2 °F 71.6 °F 47% 30.06 in 10.0 mi NE 8.1 mph - N/A   Clear
2:55 PM 95.0 °F 104.5 °F 73.4 °F 49% 30.05 in 10.0 mi ENE 3.5 mph - N/A   Scattered Clouds
3:15 PM 91.4 °F 102.5 °F 75.2 °F 59% 30.04 in 10.0 mi ESE 4.6 mph - N/A   Scattered Clouds
3:35 PM 95.0 °F 103.2 °F 71.6 °F 47% 30.04 in 10.0 mi ESE 6.9 mph - N/A   Clear
3:55 PM 95.0 °F 109.7 °F 77.0 °F 56% 30.04 in 10.0 mi SSE 9.2 mph - N/A   Clear
4:15 PM 89.6 °F 99.8 °F 75.2 °F 62% 30.04 in 10.0 mi South 3.5 mph - N/A Thunderstorm Scattered Clouds
4:35 PM 87.8 °F 95.6 °F 73.4 °F 62% 30.04 in 10.0 mi WNW 5.8 mph - N/A   Scattered Clouds
4:55 PM 89.6 °F 99.8 °F 75.2 °F 62% 30.04 in 10.0 mi SSE 6.9 mph - N/A Thunderstorm Clear
5:15 PM 89.6 °F 98.2 °F 73.4 °F 59% 30.05 in 10.0 mi South 11.5 mph - N/A Thunderstorm Clear
5:35 PM 86.0 °F 93.4 °F 73.4 °F 66% 30.05 in 10.0 mi SSW 11.5 mph 18.4 mph N/A Thunderstorm Thunderstorm
5:55 PM 84.2 °F 90.9 °F 73.4 °F 70% 30.06 in 10.0 mi SW 8.1 mph - N/A   Clear
6:15 PM 82.4 °F 89.5 °F 75.2 °F 79% 30.05 in 10.0 mi SSW 5.8 mph - N/A   Clear
6:35 PM 80.6 °F 85.4 °F 73.4 °F 79% 30.05 in 10.0 mi Calm Calm - N/A Thunderstorm Clear
6:55 PM 80.6 °F 86.2 °F 75.2 °F 84% 30.06 in 10.0 mi West 3.5 mph - N/A   Clear
7:15 PM 80.6 °F 86.2 °F 75.2 °F 84% 30.06 in 10.0 mi West 4.6 mph - N/A   Clear
7:35 PM 80.6 °F 86.2 °F 75.2 °F 84% 30.08 in 10.0 mi West 4.6 mph - N/A Thunderstorm Clear
7:55 PM 80.6 °F 86.2 °F 75.2 °F 84% 30.08 in 10.0 mi WNW 4.6 mph - N/A   Scattered Clouds
8:15 PM 80.6 °F 86.2 °F 75.2 °F 84% 30.08 in 10.0 mi West 4.6 mph - N/A   Clear
8:35 PM 80.6 °F 86.2 °F 75.2 °F 84% 30.09 in 10.0 mi WNW 3.5 mph - N/A   Clear
8:55 PM 80.6 °F 87.1 °F 77.0 °F 89% 30.10 in 10.0 mi WNW 5.8 mph - N/A   Scattered Clouds
9:15 PM 80.6 °F 86.2 °F 75.2 °F 84% 30.10 in 10.0 mi Calm Calm - N/A   Scattered Clouds
9:35 PM 78.8 °F - 73.4 °F 83% 30.11 in 10.0 mi NNW 3.5 mph - N/A   Clear
9:55 PM 78.8 °F - 73.4 °F 83% 30.11 in 10.0 mi NNW 3.5 mph - N/A   Clear
10:15 PM 78.8 °F - 73.4 °F 83% 30.11 in 10.0 mi North 3.5 mph - N/A   Clear
10:35 PM 78.8 °F - 73.4 °F 83% 30.11 in 10.0 mi Calm Calm - N/A   Clear
10:55 PM 78.8 °F - 75.2 °F 89% 30.11 in 10.0 mi Calm Calm - N/A   Clear
11:15 PM 78.8 °F - 75.2 °F 89% 30.11 in 10.0 mi North 3.5 mph - N/A   Clear
11:35 PM 78.8 °F - 75.2 °F 89% 30.10 in 10.0 mi NNE 3.5 mph - N/A   Clear
11:55 PM 78.8 °F - 75.2 °F 89% 30.10 in 10.0 mi Calm Calm - N/A   Clear